Погода в Комсомольском

Россия / Белгородская область     50°33′26″N   36°25′17″E
темп.,
°C
ветер,
м/с
пор.,
м/с
влажн.,
%
обл.,
%
осадки,
мм/ч
давл.,
гПа
погр.,
м
18 мая, вт
вт1800:00+17ю4991100 1.4 1006296
03:00+16юв239691 1.6 100540
06:00+16юв239847 1.4 1004118
09:00+18ю3493100 2.6 1004334
12:00+20ю4576100 1.4 10041011
15:00+18ююв4685100 5.0 1004596
18:00+18ю4878100 0.8 1004454
21:00+15ююв3889100 1.0 1004175
19 мая, ср
ср1900:00+13ююв48947 0.0 1004177
03:00+12ююв499777 0.1 1004252
06:00+13ююв4996100 0.0 1005438
09:00+15ююв5777100 0.0 1005952
12:00+14ююв5686100 0.8 1006493
15:00+13юв2294100 4.7 1006247
18:00+12юв3591100 0.6 1006256
21:00+11в3893100 0.9 1005192
20 мая, чт
чт2000:00+12ююв3797100 1.8 1004220
03:00+11ююв4797100 2.1 1004208
06:00+11ю4798100 0.3 1004285
09:00+13ююз5792100 0.9 1005595
12:00+13юз5890100 0.2 1007620
15:00+14юз5887100 0.4 1008681
18:00+15з588280 0.4 1009821
21:00+12зюз359458 0.6 1011113
21 мая, пт
пт2100:00+10зюз379699 0.0 1012145
03:00+9з359661 0.0 101387
06:00+10з249293 0.0 1014117
09:00+14сз2372100 0.0 1015562
12:00+17с3261100 0.0 1015948
15:00+18св3361100 0.0 10151117
18:00+17св3574100 0.1 1015470
21:00+14ссв4885100 0.1 1016144
22 мая, сб
сб2200:00+13св5128899 0.3 1015302
03:00+13св51294100 1.3 1014349
06:00+13св61494100 0.1 1014511
09:00+16всв81287100 0.7 1013743
12:00+18всв7982100 0.1 1014942
15:00+18св81083100 0.1 1013643
18:00+18св71184100 0.0 1012479
21:00+15св51293100 0.0 1012361